Shaw Air Force Base, SC

7:34 PM EDT on August 31, 2016 (GMT -0400)
Shaw Air Force Base

Weather History for KSSC - May, 2012

Change the Weather History Date:

Sunday, May 20, 2012

  Actual Average Record
Temperature  
Mean Temperature 70 °F -  
Max Temperature 84 °F 81 °F 95 °F (2000)
Min Temperature 55 °F 59 °F 42 °F (2002)
Cooling Degree Days 4    
Growing Degree Days 20 (Base 50)    
Moisture  
Dew Point 48 °F    
Average Humidity 40    
Maximum Humidity 71    
Minimum Humidity 30    
Precipitation  
Precipitation 0.00 in - - ()
Sea Level Pressure  
Sea Level Pressure 30.04 in    
Wind  
Wind Speed 11 mph (NE)    
Max Wind Speed 20 mph    
Max Gust Speed 25 mph    
Visibility 10 miles    
Events Rain    
Averages and records for this station are not official NWS values.
T = Trace of Precipitation, MM = Missing Value Source: NWS Daily Summary

Daily Weather History Graph

Daily Weather History Graph

Search for Another Location

Airport or City:

Trip Planner

Search our weather history database for the weather conditions in past years. The results will help you decide how hot, cold, wet, or windy it might be!

Date:

Astronomy

May. 20, 2012 Rise Set
Actual Time 6:16 AM EDT 8:20 PM EDT
Civil Twilight 5:48 AM EDT 8:48 PM EDT
Nautical Twilight 5:14 AM EDT 9:22 PM EDT
Astronomical Twilight 4:38 AM EDT 9:59 PM EDT
Moon 5:55 AM EDT (5/20) 8:17 PM EDT (5/20)
Length of Visible Light 14h 59m
Length of Day
14h 03m
Waning Crescent, 0% of the Moon is Illuminated
May 20
Waning Crescent
May 20
New
May 28
First Quarter
Jun 4
Full
Jun 11
Last Quarter

Hourly Weather History & Observations

Time (EDT) Temp. Dew Point Humidity Pressure Visibility Wind Dir Wind Speed Gust Speed Precip Events Conditions
12:55 AM 58.5 °F 49.1 °F 71% 30.09 in 10.0 mi NNE 6.9 mph - N/A   Clear
1:55 AM 57.6 °F 48.0 °F 70% 30.08 in 10.0 mi NNE 5.8 mph - N/A   Clear
2:55 AM 56.3 °F 46.4 °F 69% 30.06 in 10.0 mi NNE 6.9 mph - N/A   Clear
3:55 AM 55.6 °F 46.4 °F 71% 30.06 in 10.0 mi NE 6.9 mph - N/A   Scattered Clouds
4:55 AM 56.8 °F 43.3 °F 61% 30.05 in 10.0 mi North 6.9 mph - N/A   Partly Cloudy
5:55 AM 58.1 °F 44.2 °F 60% 30.05 in 10.0 mi NNE 6.9 mph - N/A   Partly Cloudy
6:55 AM 59.2 °F 44.6 °F 58% 30.06 in 10.0 mi North 8.1 mph - N/A   Clear
7:55 AM 62.4 °F 45.9 °F 55% 30.06 in 10.0 mi North 9.2 mph - N/A   Clear
8:55 AM 66.4 °F 48.2 °F 52% 30.07 in 10.0 mi North 9.2 mph - N/A   Clear
9:55 AM 73.0 °F 47.5 °F 40% 30.08 in 10.0 mi NNE 16.1 mph - N/A   Clear
10:23 AM 75.2 °F 46.4 °F 36% 30.08 in 10.0 mi NE 16.1 mph - N/A   Light Drizzle
10:55 AM 76.5 °F 44.1 °F 31% 30.07 in 10.0 mi NE 19.6 mph 25.3 mph 0.00 in Rain Light Rain
11:14 AM 77.0 °F 44.6 °F 32% 30.07 in 10.0 mi NE 18.4 mph 23.0 mph N/A   Clear
11:16 AM 77.0 °F 44.6 °F 32% 30.07 in 10.0 mi NE 17.3 mph 23.0 mph N/A Rain Light Rain
11:17 AM 77.0 °F 44.6 °F 32% 30.07 in 10.0 mi NE 17.3 mph 23.0 mph N/A   Clear
11:19 AM 77.0 °F 44.6 °F 32% 30.07 in 10.0 mi NE 17.3 mph 23.0 mph N/A Rain Light Rain
11:46 AM 78.8 °F 44.6 °F 30% 30.06 in 10.0 mi NNE 17.3 mph 24.2 mph N/A   Clear
11:55 AM 78.8 °F 44.8 °F 30% 30.07 in 10.0 mi NNE 17.3 mph 23.0 mph 0.00 in   Clear
12:11 PM 78.8 °F 44.6 °F 30% 30.06 in 10.0 mi NNE 18.4 mph 24.2 mph N/A Rain Light Rain
12:18 PM 78.8 °F 46.4 °F 32% 30.06 in 10.0 mi NE 16.1 mph 24.2 mph N/A   Clear
12:29 PM 78.8 °F 44.6 °F 30% 30.06 in 10.0 mi NE 15.0 mph - N/A Rain Light Rain
12:42 PM 80.6 °F 46.4 °F 30% 30.05 in 10.0 mi North 15.0 mph - N/A   Clear
12:50 PM 80.6 °F 48.2 °F 32% 30.06 in 10.0 mi NE 16.1 mph - N/A Rain Light Rain
12:55 PM 80.4 °F 48.0 °F 32% 30.05 in 10.0 mi NE 17.3 mph 21.9 mph 0.00 in Rain Light Rain
1:05 PM 80.6 °F 48.2 °F 32% 30.05 in 10.0 mi NNE 15.0 mph 20.7 mph N/A   Clear
1:08 PM 80.6 °F 48.2 °F 32% 30.05 in 10.0 mi NE 12.7 mph 20.7 mph N/A Rain Light Rain
1:18 PM 80.6 °F 48.2 °F 32% 30.05 in 10.0 mi NE 13.8 mph 20.7 mph N/A   Clear
1:19 PM 80.6 °F 48.2 °F 32% 30.05 in 10.0 mi ENE 13.8 mph 20.7 mph N/A Rain Light Rain
1:55 PM 81.5 °F 49.1 °F 32% 30.04 in 10.0 mi NE 11.5 mph 21.9 mph 0.00 in Rain Light Rain
1:59 PM 82.4 °F 48.2 °F 30% 30.03 in 10.0 mi NNE 12.7 mph 21.9 mph N/A   Clear
2:19 PM 82.4 °F 50.0 °F 32% 30.03 in 10.0 mi NE 15.0 mph 21.9 mph N/A Rain Light Rain
2:38 PM 82.4 °F 48.2 °F 30% 30.03 in 10.0 mi NNE 15.0 mph - N/A   Clear
2:43 PM 82.4 °F 48.2 °F 30% 30.03 in 10.0 mi ENE 13.8 mph 19.6 mph N/A Rain Light Rain
2:55 PM 83.8 °F 49.1 °F 30% 30.02 in 10.0 mi ENE 16.1 mph - 0.00 in Rain Light Rain
3:55 PM 83.5 °F 49.1 °F 30% 30.00 in 10.0 mi NE 11.5 mph - 0.00 in Rain Light Rain
4:15 PM 84.2 °F 50.0 °F 30% 30.00 in 10.0 mi NE 10.4 mph 18.4 mph N/A   Mostly Cloudy
4:17 PM 84.2 °F 50.0 °F 30% 30.00 in 10.0 mi NE 15.0 mph 18.4 mph N/A Rain Light Rain
4:55 PM 81.5 °F 48.0 °F 31% 29.99 in 10.0 mi NE 8.1 mph - 0.00 in Rain Light Rain
4:57 PM 80.6 °F 48.2 °F 32% 29.99 in 10.0 mi NE 8.1 mph - N/A   Mostly Cloudy
5:04 PM 82.4 °F 50.0 °F 32% 29.99 in 10.0 mi NE 13.8 mph 18.4 mph N/A Rain Light Rain
5:55 PM 80.8 °F 50.9 °F 35% 30.00 in 10.0 mi ENE 13.8 mph - 0.00 in Rain Light Rain
6:43 PM 78.8 °F 51.8 °F 39% 30.00 in 10.0 mi ENE 9.2 mph - N/A   Mostly Cloudy
6:51 PM 78.8 °F 51.8 °F 39% 30.00 in 10.0 mi ENE 9.2 mph - N/A Rain Light Rain
6:55 PM 79.2 °F 51.4 °F 38% 29.99 in 10.0 mi ENE 10.4 mph - 0.00 in Rain Light Rain
7:54 PM 75.2 °F 51.8 °F 44% 30.01 in 10.0 mi ENE 9.2 mph - N/A   Scattered Clouds
7:55 PM 75.9 °F 52.5 °F 44% 30.01 in 10.0 mi ENE 9.2 mph - 0.00 in   Scattered Clouds
8:55 PM 73.6 °F 55.2 °F 53% 30.01 in 10.0 mi ENE 4.6 mph - N/A   Overcast
9:55 PM 71.8 °F 56.7 °F 59% 30.02 in 10.0 mi ENE 4.6 mph - N/A   Overcast
10:55 PM 70.3 °F 57.4 °F 63% 30.02 in 10.0 mi ENE 4.6 mph - N/A   Overcast
11:55 PM 70.9 °F 58.3 °F 64% 30.01 in 10.0 mi ENE 4.6 mph - N/A   Overcast